Location: Batang Balui
(2.7000°N, 113.7833°E)
Time: 04:40:51
(UTC+00:00)

Aurora 2 Rocket - Pass Details

Date: 08 February 2023
Orbit: 388 x 1696 km, 25.0° (Epoch: 26 March)

Event Time Altitude Azimuth Distance (km) Brightness Sun altitude
Rises 12:33:20 0° 247° (WSW) 3,263 7.5 -28.3°
Reaches altitude 10° 12:36:13 10° 249° (WSW) 2,114 6.2 -29.0°
Enters shadow 12:39:21 36° 260° (W) 922 3.9 -29.7°
